Location: Colonial Hills
(40.5656°N, 77.6119°W)
Time: 02:50:35
(UTC+00:00)

X-37B - Pass Details

Date: 01 December 2020
Orbit: 383 x 391 km, 45.1° (Epoch: 22 January)

Event Time Altitude Azimuth Distance (km) Brightness Sun altitude
Rises 23:30:16 0° 276° (W) 2,259 5.8 -19.7°
Reaches altitude 10° 23:32:25 10° 285° (WNW) 1,407 4.3 -20.1°
Enters shadow 23:34:57 34° 334° (NNW) 662 1.8 -20.5°
